Regional Weather Roundup
Issued by NWS Mobile, AL

Home | Current Version | Previous Version | Text Only | Print | Product List | Glossary On
Versions: 1 2 3 4 5 6 7 8 9 10 11 12 13 14 15 16 17 18 19 20 21 22 23 24 25 26 27 28 29 30 31 32 33 34 35 36 37 38 39 40 41 42 43 44 45 46 47 48 49 50
000
ASUS44 KMOB 301512
RWRMOB
REGIONAL WEATHER ROUNDUP
NATIONAL WEATHER SERVICE MOBILE AL
1000 AM CDT SAT APR 30 2016

NOTE: "FAIR" INDICATES FEW OR NO CLOUDS BELOW 12,000 FEET WITH NO
      SIGNIFICANT WEATHER AND/OR OBSTRUCTIONS TO VISIBILITY.

  * THESE STATIONS ARE PART OF THE UNIVERSITY OF SOUTH ALABAMA
    MESONET AND ARE NOT UNDER NWS OR FAA QUALITY CONTROL.

ALZ061>064-301600-
COASTAL ALABAMA

CITY           SKY/WX    TMP DP  RH WIND       PRES   REMARKS
MOBILE REG APT CLOUDY    78  74  87 SE18      29.91F
BROOKLEY FIELD CLOUDY    78  74  87 SE14      29.92F
USA CAMPUS*    NOT AVBL
DOG RIVER*     NOT AVBL


CITY           SKY/WX    TMP DP  RH WIND       PRES   REMARKS
MOUNT VERNON*  NOT AVBL
SARALAND*      NOT AVBL
BAY MINETTE*   NOT AVBL
LOXLEY*        NOT AVBL
ROBERTSDALE*   NOT AVBL
FAIRHOPE*      NOT AVBL
ELBERTA*       NOT AVBL
FOLEY*         NOT AVBL
GRAND BAY*     NOT AVBL
DAUPHIN ISLND* NOT AVBL
BON SCOUR NWR* NOT AVBL
GULF SHORES    CLOUDY    76  75  98 SE10G18   29.93R

$$

ALZ051>060-301600-
INTERIOR SOUTHWEST AND SOUTH CENTRAL ALABAMA

CITY           SKY/WX    TMP DP  RH WIND       PRES   REMARKS
GREENVILLE     CLOUDY    78  64  61 S9        29.94R
EVERGREEN      CLOUDY    76  68  76 SE6       29.95S
CASTLEBERRY*   NOT AVBL
ATMORE*        NOT AVBL
DIXIE*         NOT AVBL
ANDALUSIA/OPP  MOSUNNY   83  66  56 SE6       29.95R
ANDALUSIA*     NOT AVBL
FLORALA APT    CLOUDY    78  65  63 SE8       29.97R
FLORALA*       NOT AVBL

$$

FLZ001>006-301600-
WESTERN FLORIDA PANHANDLE

CITY           SKY/WX    TMP DP  RH WIND       PRES   REMARKS
PENSACOLA      CLOUDY    78  72  81 SE14      29.94R
NAS PENSACOLA  NOT AVBL
MILTON         NOT AVBL
WHTNG S FIELD  NOT AVBL


CITY           SKY/WX    TMP DP  RH WIND       PRES   REMARKS
WALNUT HILL*   NOT AVBL
JAY*           NOT AVBL
DUKE FIELD     PTSUNNY   78  68  71 SE10      29.94R
CRESTVIEW      CLOUDY    79  69  71 SE7       29.96S
VALPARAISO     PTSUNNY   77  63  61 E12       29.94R
DESTIN         CLOUDY    79  74  84 SE15G21   29.95S

$$

MSZ076-079-301600-
INTERIOR SOUTHEAST MISSISSIPPI

CITY           SKY/WX    TMP DP  RH WIND       PRES   REMARKS
LEAKESVILLE*   NOT AVBL
AGRICOLA*      NOT AVBL

$$

MARINE OBSERVATIONS

STATION/POSITION TIME  TEMP    WIND        PRES    WAVE
                       AIR SEA DIR/SP/G            HT/PER
                 (UTC) (F)     (DEG/KT/KT) (MB)    (FT/S)
PASCAGOULA       1400   76     130/ 13/ 16 1011.7R
PETIT BOIS ISLND 1406   79     130/ 11/ 14 1012.8R
GRAND BAY        1300   76     150/ 13     1013.0R
KATRINA CUT      1400   76     130/ 12       N/A
CEDAR POINT      1400   76     140/ 11     1012.5R
E DAUPHIN ISLAND 1400   76     130/ 14/ 17 1012.2R
MIDDLE BAY LIGHT 1400   76     130/ 14     1012.9R
USCG MOBILE BAY  1400   75 76  140/  4/  5 1013.6R
STATE DOCKS      1400   76 73              1012.9R
MEAHER PARK      1400   75     150/  7     1012.2R
WEEKS BAY        1300   76                   N/A
FORT MORGAN      1400   76     140/ 13/ 15 1012.2R
12 S ORANGE BCH  1450   75 74  110/ 10/ 12 1012.4R   3/ 6
PENSACOLA BAY    1400   83 69  110/  3/  6 1013.5R
64 S DAUPHIN ISL 1400   76 74  140/ 12/ 16 1011.8R

$$

SELECTED LOCATIONS ACROSS THE REGION

CITY           SKY/WX    TMP DP  RH WIND       PRES   REMARKS
NEW ORLEANS    CLOUDY    81  72  74 SE14      29.83R
GULFPORT       CLOUDY    78  73  84 SE22      29.86R
PASCAGOULA AP  CLOUDY    78  73  84 SE13G23   29.89S
PASCAGOULA*    NOT AVBL
HATTIESBURG    CLOUDY    79  70  74 S13       29.89R
LAUREL         CLOUDY    75  70  83 SE8       29.90R
MERIDIAN       CLOUDY    75  69  81 SE9       29.90S
JACKSON        CLOUDY    74  69  85 CALM      29.90R
MONTGOMERY     CLOUDY    77  66  68 SE6       29.96R
TROY           MOSUNNY   81  67  62 S3        29.96R
KINSTON*       NOT AVBL
GENEVA*        NOT AVBL
ASHFORD*       NOT AVBL
DOTHAN         CLOUDY    82  63  52 S13       29.99S
PANAMA CITY    CLOUDY    78  69  73 E9        29.96R

$$




USA.gov is the U.S. government's official web portal to all federal, state and local government web resources and services.